Tracking 20719 objects as of 26-May-2020
HD Live streaming from Space Station
objects crossing your sky now

FLOCK 2K 37

Track FLOCK 2K 37 now!
10-day predictions
FLOCK 2K 37 is classified as:


NORAD ID: 42867
Int'l Code: 2017-042AU
Perigee: 442.1 km
Apogee: 457.4 km
Inclination: 96.9 °
Period: 93.4 minutes
Semi major axis: 6820 km
RCS: Unknown
Launch date: July 14, 2017
Source: United States (US)
Launch site: TYURATAM MISSILE AND SPACE COMPLEX (TTMTR)
aabbcc
Your satellite tracking list
Your tracking list is empty




NASA's NSSDC Master Catalog

Two Line Element Set (TLE):
1 42867U 17042AU  20146.88800808 +.00002329 +00000-0 +57888-4 0  9990
2 42867 096.8955 016.0522 0011177 061.8531 298.3845 15.41183817160632
Source of the keplerian elements: AFSPC